Regional Weather Roundup
Issued by NWS Upton, NY

Current Version | Previous Version | Text Only | Print | Product List | Glossary Off
Versions: 1 2 3 4 5 6 7 8 9 10 11 12 13 14 15 16 17 18 19 20 21 22 23 24 25 26 27 28 29 30 31 32 33 34 35 36 37 38 39 40 41 42 43 44 45 46 47 48 49 50

000
ASUS41 KOKX 260707
RWROKX

REGIONAL WEATHER ROUNDUP
NATIONAL WEATHER SERVICE NEW YORK NY
300 AM EDT SUN APR 26 2015

NOTE: "FAIR" INDICATES FEW OR NO CLOUDS BELOW 12,000 FEET WITH NO
SIGNIFICANT WEATHER AND/OR OBSTRUCTIONS TO VISIBILITY.

NYZ071-072-176-178-NJZ106-104-260800-
NEW YORK CITY METRO AREA


CITY           SKY/WX    TMP DP  RH WIND       PRES   REMARKS
CENTRAL PARK   PTCLDY    49  27  42 VRB6      29.70S
LAGUARDIA APRT MOCLDY    47  33  58 NE6       29.67F
KENNEDY INTL   MOCLDY    48  29  47 NE10      29.68F
NEWARK/LIBERTY MOCLDY    46  29  51 N9        29.68S
BRNX BOT. GARD   N/A     45  28  53 CALM      29.67F
TETERBORO      PTCLDY    47  27  45 N6        29.67F
$$

NYZ177-179-078>081-260800-
LONG ISLAND NEW YORK

CITY           SKY/WX    TMP DP  RH WIND       PRES   REMARKS
FARMINGDALE    PTCLDY    42  32  67 N8        29.67F
ISLIP          PTCLDY    42  33  70 N6        29.65F
SHIRLEY        PTCLDY    39  33  79 N6        29.68S WCI  35
WESTHAMPTON    PTCLDY    34  28  79 NE5       29.68F WCI  30
MONTAUK POINT    N/A     43  37  79 NE3       29.69F
$$

NYZ052-065-067-260800-
HUDSON VALLEY

CITY           SKY/WX    TMP DP  RH WIND       PRES   REMARKS
WHITE PLAINS   PTCLDY    44  26  49 N7        29.66F
NEWBURGH       CLEAR     37  28  70 CALM      29.70F
MONTGOMERY     CLEAR     32  27  81 CALM      29.68F
POUGHKEEPSIE   CLEAR     33  27  78 CALM      29.69F
ALBANY         CLOUDY    44  28  53 N3        29.72F
$$

NJZ001-105-106-008-010-013-015-019>022-104-260800-
NEW JERSEY

CITY           SKY/WX    TMP DP  RH WIND       PRES   REMARKS
NEWARK/LIBERTY MOCLDY    46  29  51 N9        29.68S
TETERBORO      PTCLDY    47  27  45 N6        29.67F
CALDWELL       PTCLDY    43  28  55 CALM      29.68F
MORRISTOWN     PTCLDY    41  32  70 CALM      29.68F
SOMERVILLE     PTCLDY    38  32  79 CALM      29.66F
SUSSEX         CLEAR     32  26  78 CALM      29.70S
ANDOVER          N/A     37  30  75 CALM      29.68F
TRENTON        PTCLDY    47  26  44 NE8       29.65F
MILLVILLE      CLOUDY    46  39  76 W5        29.66F
ATLANTIC CITY  CLOUDY    46  35  65 W3        29.66F
WRIGHTSTOWN    PTCLDY    38  31  76 CALM      29.63F
TOMS RIVER     MOCLDY    37  34  87 CALM      29.66R
BELMAR         PTCLDY    45  28  53 N6        29.65F
$$

PAZ047>061-062-071-260800-
EASTERN PENNSYLVANIA

CITY           SKY/WX    TMP DP  RH WIND       PRES   REMARKS
PHILADELPHIA   PTCLDY    48  34  58 W3        29.67F
ALLENTOWN      PTCLDY    38  27  64 N3        29.69S
SCRANTON       CLEAR     34  25  69 CALM      29.69F
$$

CTZ002-004>006-009-010-012-RIZ004-006-007-MAZ004-011-015-260800-
SOUTHERN NEW ENGLAND
 IN CT

CITY           SKY/WX    TMP DP  RH WIND       PRES   REMARKS
BRADLEY INTL   CLEAR     38  27  64 N3        29.68F
HARTFORD       CLEAR     40  31  70 SE5       29.69F
DANBURY        CLEAR     33  26  75 SW3       29.69F
WTRBRY/OXFORD  CLEAR     41  25  52 NE6       29.68F
BRIDGEPORT     PTCLDY    44  31  60 N8        29.68F
MERIDEN        CLEAR     37  29  72 CALM      29.69F
NEW HAVEN      CLEAR     40  29  64 N5        29.69S
CHESTER        FAIR      43  28  56 NE3       29.68F
GROTON         CLEAR     42  29  59 N6        29.68F
WILLIMANTIC    CLEAR     36  31  82 CALM      29.69F

 IN RI

CITY           SKY/WX    TMP DP  RH WIND       PRES   REMARKS
PROVIDENCE     CLEAR     43  28  55 N5        29.69F
BLOCK ISLAND   CLEAR     41  36  81 NE6       29.67F
WESTERLY       CLEAR     38  32  79 CALM      29.69F

 IN MA

CITY           SKY/WX    TMP DP  RH WIND       PRES   REMARKS
BOSTON         MOCLDY    44  30  57 N8        29.68F
WORCESTER      CLOUDY    43  27  53 N8        29.66F
WESTFIELD      PTCLDY    33  28  81 S3        29.69F
PROVINCETOWN   CLEAR    N/A N/A N/A N5        29.68F
NANTUCKET      CLOUDY    44  34  67 N10       29.66F
$$

ANZ330-335-338-340-345-350-353-355-260800-
COASTAL MARINE OBSERVATIONS


STATION/POSITION TIME  SKY/WX   TEMP    WIND        PRES    VSBY  WAVE
                                AIR SEA DIR/SP/G                  HT/PER
                 (UTC)          (F)     (DEG/KT/KT) (MB)    (MI)  (FT/S)
NY HARB ENTRANCE 0650            45 45   30/ 10/ 10 1003.9          1/ 5
4S FIRE IS       0603               44                N/A           2/ 5
20S FIRE ISLAND  0650            44 43     CALM     1004.4          2/ 5
23SW MTP         NOT AVBL
HUDSON CANYON    NOT AVBL
EXECUTION ROCKS  NOT AVBL
WESTERN LI SOUND NOT AVBL
CENTRAL LI SOUND NOT AVBL
EASTERN LI SOUND 0600            44      40/  6/  6   N/A
ROBBINS REEF     0618            50      10/ 10/ 11 1003.6
$$


>>>>>>>>>>>>>>>>>>>>>>>>>>>> KEY <<<<<<<<<<<<<<<<<<<<<<<<<<<
>                                                          <
>     SKY/WX - SKY CONDITION/PRESENT WEATHER               <
>     TMP    - TEMPERATURE IN FAHRENHEIT                   <
>     DP     - DEWPOINT IN FAHRENHEIT                      <
>     RH     - RELATIVE HUMIDITY IN PERCENT                <
>     WIND   - DIRECTION AND SPEED IN MPH                  <
>     PRES   - MEAN SEA LEVEL PRESSURE IN INCHES OF HG     <
>     WCI    - WIND CHILL INDEX                            <
>     VSB    - VISIBILITY IN MILES                         <
>     HX     - HEAT INDEX                                  <
>     TC     - TEMPERATURE IN CELSIUS                      <
>     VRB    - VARIABLE WIND DIRECTION                     <
>                                                          <
>>>>>>>>>>>>>>>>>>>>>>>>>>>> KEY <<<<<<<<<<<<<<<<<<<<<<<<<<<





USA.gov is the U.S. government's official web portal to all federal, state and local government web resources and services.